| time (UTC) | temp F | wind direction | speed MPH | gust MPH | rain 1hr in | rain 24hr in | rain mn in | humidity % | barometer mb |
| 20260506131553 | 60 | 1.0 | 14.0 | 0.00 | 0.00 | 0.00 | 85 | 1012.7 | |
| 20260506130133 | 59 | 1.0 | 8.0 | 0.00 | 0.00 | 0.00 | 86 | 1012.6 | |
| 20260506124551 | 59 | 1.0 | 12.0 | 0.00 | 0.00 | 0.00 | 86 | 1012.8 | |
| 20260506123048 | 59 | 0.0 | 9.0 | 0.00 | 0.00 | 0.00 | 85 | 1012.8 | |
| 20260506121551 | 60 | 0.0 | 7.0 | 0.00 | 0.00 | 0.00 | 86 | 1013.0 | |
| 20260506120041 | 59 | 0.0 | 0.0 | 0.00 | 0.00 | 0.00 | 86 | 1013.1 | |
| 20260506114535 | 59 | 2.0 | 9.0 | 0.00 | 0.00 | 0.00 | 88 | 1013.1 | |
| 20260506113038 | 58 | 0.0 | 6.0 | 0.00 | 0.00 | 0.00 | 89 | 1012.9 | |
| 20260506111533 | 57 | 0.0 | 8.0 | 0.00 | 0.00 | 0.00 | 91 | 1012.9 | |
| 20260506110039 | 56 | 0.0 | 5.0 | 0.00 | 0.00 | 0.00 | 92 | 1013.1 | |
| 20260506104528 | 55 | 1.0 | 8.0 | 0.00 | 0.00 | 0.00 | 92 | 1012.9 | |
| 20260506103025 | 55 | 0.0 | 11.0 | 0.00 | 0.00 | 0.00 | 93 | 1012.9 | |
| 20260506101520 | 55 | 0.0 | 3.0 | 0.00 | 0.00 | 0.00 | 93 | 1012.8 | |
| 20260506100020 | 55 | 0.0 | 10.0 | 0.00 | 0.00 | 0.00 | 93 | 1012.9 | |
| 20260506094514 | 55 | 0.0 | 2.0 | 0.00 | 0.00 | 0.00 | 92 | 1012.7 | |
| 20260506093011 | 56 | 1.0 | 8.0 | 0.00 | 0.00 | 0.00 | 92 | 1012.9 | |
| 20260506091509 | 56 | 0.0 | 1.0 | 0.00 | 0.00 | 0.00 | 92 | 1012.9 | |
| 20260506090005 | 56 | 0.0 | 10.0 | 0.00 | 0.00 | 0.00 | 91 | 1013.1 | |
| 20260506084502 | 56 | 0.0 | 9.0 | 0.00 | 0.00 | 0.00 | 91 | 1013.1 | |
| 20260506083101 | 56 | 0.0 | 0.0 | 0.00 | 0.00 | 0.00 | 91 | 1013.1 | |
| 20260506081608 | 56 | 0.0 | 9.0 | 0.00 | 0.00 | 0.00 | 91 | 1013.1 | |
| 20260506073051 | 56 | 1.0 | 8.0 | 0.00 | 0.00 | 0.00 | 90 | 1013.3 | |
| 20260506071545 | 56 | 0.0 | 5.0 | 0.00 | 0.00 | 0.00 | 90 | 1013.4 | |
| 20260506061543 | 56 | 0.0 | 0.0 | 0.00 | 0.00 | 0.00 | 89 | 1013.4 | |
| 20260506044513 | 58 | 0.0 | 2.0 | 0.00 | 0.00 | 0.00 | 85 | 1013.8 | |
| 20260506043010 | 58 | 0.0 | 11.0 | 0.00 | 0.00 | 0.00 | 85 | 1013.8 | |
| 20260506041507 | 58 | 1.0 | 12.0 | 0.00 | 0.00 | 0.00 | 84 | 1013.7 | |
| 20260506040003 | 58 | 0.0 | 5.0 | 0.00 | 0.00 | 0.00 | 83 | 1013.9 | |
| 20260506034503 | 59 | 1.0 | 11.0 | 0.00 | 0.00 | 0.00 | 82 | 1013.9 | |
| 20260506033059 | 59 | 0.0 | 9.0 | 0.00 | 0.00 | 0.00 | 82 | 1013.7 | |
| 20260506031605 | 60 | 0.0 | 9.0 | 0.00 | 0.00 | 0.00 | 81 | 1013.5 | |
| 20260506030057 | 60 | 0.0 | 8.0 | 0.00 | 0.00 | 0.00 | 81 | 1013.6 | |
| 20260506024557 | 60 | 0.0 | 10.0 | 0.00 | 0.00 | 0.00 | 81 | 1013.6 | |
| 20260506023057 | 60 | 1.0 | 12.0 | 0.00 | 0.00 | 0.00 | 80 | 1013.8 | |
| 20260506021551 | 60 | 1.0 | 7.0 | 0.00 | 0.00 | 0.00 | 79 | 1013.6 | |
| 20260506020049 | 60 | 0.0 | 11.0 | 0.00 | 0.00 | 0.00 | 78 | 1013.7 | |
| 20260506014548 | 60 | 1.0 | 9.0 | 0.00 | 0.00 | 0.00 | 77 | 1013.5 | |
| 20260506013053 | 61 | 2.0 | 15.0 | 0.00 | 0.00 | 0.00 | 77 | 1013.5 | |
| 20260506011545 | 61 | 0.0 | 13.0 | 0.00 | 0.00 | 0.00 | 76 | 1013.2 | |
| 20260506010054 | 62 | 0.0 | 15.0 | 0.00 | 0.00 | 0.00 | 75 | 1013.0 | |
| 20260506004540 | 62 | 2.0 | 14.0 | 0.00 | 0.00 | 0.00 | 74 | 1012.9 | |
| 20260506003039 | 63 | 0.0 | 12.0 | 0.00 | 0.00 | 0.00 | 72 | 1012.8 | |
| 20260506001536 | 63 | 0.0 | 17.0 | 0.00 | 0.00 | 0.00 | 71 | 1012.7 | |
| 20260506000034 | 63 | 0.0 | 13.0 | 0.00 | 0.00 | 0.00 | 70 | 1012.4 | |
| 20260505234534 | 64 | 6.0 | 16.0 | 0.00 | 0.00 | 0.00 | 69 | 1012.3 | |
| 20260505233030 | 64 | 0.0 | 13.0 | 0.00 | 0.00 | 0.00 | 69 | 1011.9 | |
| 20260505231529 | 64 | 3.0 | 15.0 | 0.00 | 0.00 | 0.00 | 68 | 1011.8 | |
| 20260505230037 | 64 | 3.0 | 15.0 | 0.00 | 0.00 | 0.00 | 69 | 1011.6 | |
| 20260505224525 | 65 | 5.0 | 13.0 | 0.00 | 0.00 | 0.00 | 67 | 1011.6 | |
| 20260505223025 | 65 | 2.0 | 23.0 | 0.00 | 0.00 | 0.00 | 66 | 1011.5 | |
| 20260505221522 | 67 | 0.0 | 20.0 | 0.00 | 0.00 | 0.00 | 64 | 1011.4 | |
| 20260505220024 | 67 | 3.0 | 18.0 | 0.00 | 0.00 | 0.00 | 63 | 1011.4 | |
| 20260505214517 | 67 | 5.0 | 18.0 | 0.00 | 0.00 | 0.00 | 62 | 1011.2 | |
| 20260505213021 | 68 | 5.0 | 17.0 | 0.00 | 0.00 | 0.00 | 62 | 1011.2 | |
| 20260505211517 | 68 | 4.0 | 16.0 | 0.00 | 0.00 | 0.00 | 63 | 1011.1 | |
| 20260505210010 | 67 | 2.0 | 17.0 | 0.00 | 0.00 | 0.00 | 65 | 1011.2 | |
| 20260505204510 | 67 | 4.0 | 21.0 | 0.00 | 0.00 | 0.00 | 65 | 1011.1 | |
| 20260505203008 | 68 | 3.0 | 18.0 | 0.00 | 0.00 | 0.00 | 64 | 1011.1 | |
| 20260505201506 | 68 | 3.0 | 16.0 | 0.00 | 0.00 | 0.00 | 64 | 1011.3 | |
| 20260505200003 | 69 | 6.0 | 19.0 | 0.00 | 0.00 | 0.00 | 62 | 1011.2 | |
| 20260505194559 | 69 | 0.0 | 16.0 | 0.00 | 0.00 | 0.00 | 62 | 1011.6 | |
| 20260505193057 | 70 | 1.0 | 14.0 | 0.00 | 0.00 | 0.00 | 61 | 1011.7 | |
| 20260505191603 | 69 | 0.0 | 14.0 | 0.00 | 0.00 | 0.00 | 64 | 1012.2 | |
| 20260505190057 | 69 | 0.0 | 13.0 | 0.00 | 0.00 | 0.00 | 64 | 1012.3 | |
| 20260505184547 | 69 | 4.0 | 11.0 | 0.00 | 0.00 | 0.00 | 63 | 1012.6 | |
| 20260505183108 | 69 | 1.0 | 9.0 | 0.00 | 0.00 | 0.00 | 65 | 1012.7 | |
| 20260505181541 | 69 | 0.0 | 12.0 | 0.00 | 0.00 | 0.00 | 66 | 1012.8 | |
| 20260505180042 | 69 | 0.0 | 1.0 | 0.00 | 0.00 | 0.00 | 66 | 1012.9 | |
| 20260505174537 | 68 | 0.0 | 0.0 | 0.00 | 0.00 | 0.00 | 67 | 1012.9 | |
| 20260505173046 | 68 | 0.0 | 10.0 | 0.00 | 0.00 | 0.00 | 67 | 1012.9 | |
| 20260505171542 | 68 | 0.0 | 8.0 | 0.00 | 0.00 | 0.00 | 66 | 1013.0 | |
| 20260505170030 | 69 | 0.0 | 10.0 | 0.00 | 0.00 | 0.00 | 65 | 1013.1 | |
| 20260505164527 | 71 | 0.0 | 10.0 | 0.00 | 0.00 | 0.00 | 65 | 1013.2 | |
| 20260505163025 | 71 | 0.0 | 4.0 | 0.00 | 0.00 | 0.00 | 64 | 1013.3 | |
| 20260505161522 | 71 | 0.0 | 4.0 | 0.00 | 0.00 | 0.00 | 62 | 1013.5 | |
| 20260505153013 | 69 | 0.0 | 6.0 | 0.00 | 0.00 | 0.00 | 65 | 1013.6 | |
| 20260505151510 | 69 | 0.0 | 0.0 | 0.00 | 0.00 | 0.00 | 66 | 1014.0 |